OpenBCM V1.13 (Linux)

Packet Radio Mailbox

DB0FHN

[JN59NK Nuernberg]

 Login: GUEST





  
LU1HVK > KEP      17.09.19 08:01l 242 Lines 12024 Bytes #999 (0) @ WW
BID : 31923_LU1HVK
Read: DJ6UX DF7EAV GUEST
Subj: TLE 17 09
Path: DB0FHN<DB0FFL<OE2XZR<OE5XBR<OE1XAB<HG8LXL<XE1FH<VE2PKT<N9PMO<GB7YEW<
      N7HPX<LU1HVK
Sent: 190917/0523Z 31923@LU1HVK.2594.CBA.ARG.SA LinBPQ6.0.18

                         _    _   _ _ _   ___     ___  __
                        | |  | | | / | | | \ \   / / |/ /
                        | |  | | | | | |_| |\ \ / /| ' /
                        | |__| |_| | |  _  | \ V / | . \
                        |_____\___/|_|_| |_|  \_/  |_|\_\

     BBS/NODO - CORDOBA (LEONES-FF87UH) - LU1HVK-4 NODO - LU1HVK-3 APRS

+----------------------------------------------------------------------------+
OSCAR 7
1  7530U 74089B   19259.88008826 -.00000048 +00000-0 -18087-4 0  9991
2  7530 101.7542 226.6484 0012047 171.3246 243.1131 12.53639773051587
OSCAR 11 (UoSAT 2)
1 14781U 84021B   19259.63492558 +.00000051 +00000-0 +12376-4 0  9993
2 14781 097.6071 280.0792 0009239 033.3230 326.8564 14.83106108891091
OSCAR 19 (LUSAT)
1 20442U 90005G   19259.88556654 -.00000002 +00000-0 +15457-4 0  9998
2 20442 098.6540 201.7586 0010694 241.5284 118.4823 14.32932739549234
EYESAT A
1 22825U 93061C   19259.89670240 -.00000024 +00000-0 +87791-5 0  9994
2 22825 098.9103 250.6206 0009503 095.4870 264.7395 14.30066301354576
ITAMSAT
1 22826U 93061D   19259.52760039 -.00000016 +00000-0 +11523-4 0  9991
2 22826 098.9042 250.2230 0010041 086.4842 273.7488 14.30400286354746
RADIO ROSTO
1 23439U 94085A   19259.89164491 -.00000051 +00000-0 -25002-3 0  9995
2 23439 064.8190 330.2616 0145487 095.7179 266.0353 11.27568155018060
JAS 2
1 24278U 96046B   19259.91002412 -.00000020 +00000-0 +15858-4 0  9997
2 24278 098.5512 041.1276 0350463 006.2943 354.2433 13.53092841139756
TECHSAT 1B
1 25397U 98043D   19259.78981788 -.00000017  00000-0  11949-4 0  9999
2 25397  98.6933 198.8624 0002178 112.6496 247.4913 14.23670452100691
ISS (ZARYA)
1 25544U 98067A   19260.01205097  .00001706  00000-0  37786-4 0  9991
2 25544  51.6436 265.8368 0007505  56.3765  38.5969 15.50092421189506
PCSAT
1 26931U 01043C   19259.89961739 -.00000028 +00000-0 +20925-4 0  9990
2 26931 067.0506 130.9009 0007452 271.3969 088.6278 14.30552336937802
SAUDISAT 1C
1 27607U 02058C   19259.88993763 -.00000027 +00000-0 +17054-4 0  9997
2 27607 064.5545 133.8264 0077014 239.0511 120.3007 14.75571352900215
CUTE-1
1 27844U 03031E   19259.91711488 +.00000025 +00000-0 +31130-4 0  9996
2 27844 098.6852 266.7848 0010749 126.0559 234.1616 14.22194406841071
CUBESAT XI 4
1 27848U 03031J   19259.86460351 +.00000019 +00000-0 +28537-4 0  9994
2 27848 098.6928 267.2519 0010487 136.9272 223.2728 14.21787615840926
MOZHAYETS 4
1 27939U 03042A   19259.82141129  .00000079  00000-0  22719-4 0  9994
2 27939  98.0539  33.9448 0013786 138.6279 221.5981 14.66802208853751
CUBESAT XI 5
1 28895U 05043F   19259.88290103 +.00000076 +00000-0 +23469-4 0  9992
2 28895 097.9723 039.5879 0018056 069.0898 291.2235 14.63690261740443
CUTE-1.7+APD II
1 32785U 08021C   19259.77527069 +.00000135 +00000-0 +20169-4 0  9996
2 32785 097.5541 255.2601 0012256 330.6918 029.3610 14.88343764617019
DELFI C3
1 32789U 08021G   19259.91889577 +.00000464 +00000-0 +34887-4 0  9998
2 32789 097.4566 306.8298 0012558 169.2791 190.8707 15.07108480620453
SEEDS
1 32791U 08021J   19259.57468807 +.00000185 +00000-0 +24109-4 0  9998
2 32791 097.5305 261.1274 0011991 302.5365 057.4695 14.90867811617422
YUBELEINY
1 32953U 08025A   19259.86695933 +.00000020 +00000-0 +75656-4 0  9997
2 32953 082.4986 088.6836 0018798 294.2189 065.6928 12.43091169513515
PRISM (HITOMI)
1 33493U 09002B   19259.84999675 +.00000145 +00000-0 +18302-4 0  9994
2 33493 098.1197 184.2223 0013973 243.7440 116.2345 14.96726083578624
KKS-1 (KISEKI)
1 33499U 09002H   19259.87066946 +.00000038 +00000-0 +13629-4 0  9997
2 33499 098.3446 101.4328 0007902 281.8143 078.2178 14.75461750572094
SWISSCUBE
1 35932U 09051B   19259.46630546  .00000095  00000-0  32507-4 0  9992
2 35932  98.5969  68.1136 0006552 246.9756 113.0750 14.56308808529840
BEESAT
1 35933U 09051C   19259.46387790  .00000076  00000-0  28233-4 0  9993
2 35933  98.5989  69.9079 0004674 262.0673  97.9993 14.56394901529958
ITUPSAT 1
1 35935U 09051E   19259.71088399  .00000057  00000-0  24409-4 0  9996
2 35935  98.6099  70.3937 0006991 258.8248 101.2162 14.55551522529733
XIWANG-1 (HOPE-1)
1 36122U 09072B   19259.72525404 -.00000008 +00000-0 +89812-4 0  9998
2 36122 100.0760 257.8827 0007901 135.7937 224.3810 13.16351436468721
TISAT 1
1 36799U 10035E   19259.66922848 +.00000224 +00000-0 +28705-4 0  9998
2 36799 098.1675 054.8693 0013041 146.0852 214.1201 14.91154298497973
JUGNU
1 37839U 11058B   19258.11680575 +.00000309 +00000-0 +22467-4 0  9990
2 37839 019.9604 158.5532 0018945 221.4669 284.6732 14.12658347409665
SRMSAT
1 37841U 11058D   19258.29495675 +.00000293 +00000-0 +16073-4 0  9995
2 37841 019.9708 216.0836 0012069 090.3928 066.2272 14.10638673409124
M-CUBED/EXP-1 PRIME
1 37855U 11061F   19259.78493606 +.00000853 +00000-0 +50439-4 0  9997
2 37855 101.7117 201.6269 0173087 169.6416 190.8437 15.05577962429861
HORYU 2
1 38340U 12025D   19259.68648257 +.00000120 +00000-0 +25477-4 0  9992
2 38340 098.3217 300.9428 0011282 191.0941 169.0020 14.75748000384026
STRAND 1
1 39090U 13009E   19259.79732274 +.00000016 +00000-0 +20609-4 0  9999
2 39090 098.4806 104.2122 0009751 027.7244 332.4459 14.35096707343291
SOMP
1 39134U 13015E   19259.87896229 +.00000636 +00000-0 +38218-4 0  9998
2 39134 064.8620 088.2146 0035663 289.2000 070.5269 15.20313746353924
BEESAT 3
1 39135U 13015F   19259.89576904 +.00000422 +00000-0 +30683-4 0  9997
2 39135 064.8679 107.7383 0033219 299.6380 060.1439 15.17595366353548
BEESAT 2
1 39136U 13015G   19259.90119791 +.00000553 +00000-0 +37698-4 0  9995
2 39136 064.8682 111.8006 0024905 304.0379 055.8382 15.17014785353462
CUBEBUG 1
1 39153U 13018D   19259.85023954 +.00000143 +00000-0 +25583-4 0  9991
2 39153 097.9808 357.4801 0015564 265.9240 094.0193 14.80593930345078
ZACUBE
1 39417U 13066B   19259.89443804 +.00000138 +00000-0 +23523-4 0  9997
2 39417 097.5627 268.3277 0060494 098.0829 262.7254 14.81146897314393
TRITON 1
1 39427U 13066M   19259.91380935 +.00000130 +00000-0 +29008-4 0  9992
2 39427 097.6862 231.7634 0112478 236.2688 122.7759 14.67877839311388
GOMX 1
1 39430U 13066Q   19259.79047430  .00000168  00000-0  39774-4 0  9994
2 39430  97.7538 210.4449 0150955 330.6569  28.6218 14.59284053309742
HUMSAT D
1 39433U 13066T   19259.67002923 +.00000475 +00000-0 +51528-4 0  9994
2 39433 097.5456 303.4615 0030704 003.5088 356.6341 14.92247664315316
CUBEBUG 2
1 39440U 13066AA  19259.92268817 +.00000131 +00000-0 +25109-4 0  9991
2 39440 097.6074 253.0558 0080924 150.8839 209.6920 14.75884457312085
FUNCUBE 1
1 39444U 13066AE  19259.91255889 +.00000173 +00000-0 +27429-4 0  9992
2 39444 097.5602 270.3763 0059654 091.6585 269.1463 14.81972441312701
UWE-3
1 39446U 13066AG  19259.90770103 +.00000129 +00000-0 +23635-4 0  9990
2 39446 097.5842 260.1571 0071270 124.9247 235.8689 14.78419464312006
SPROUT
1 39770U 14029E   19259.77834064  .00000302  00000-0  39456-4 0  9993
2 39770  97.8871   2.5062 0009226 143.2466 216.9358 14.87417665288223
UNISAT 6
1 40012U 14033C   19259.69028221 +.00000130 +00000-0 +26697-4 0  9992
2 40012 097.7449 122.3706 0058513 166.1099 194.1737 14.74005844281947
DUCHIFAT 1
1 40021U 14033M   19259.82853582 +.00000261 +00000-0 +32468-4 0  9991
2 40021 097.9228 184.7194 0014206 110.0682 250.2066 14.90679666284976
QB50P1
1 40025U 14033R   19259.75120397 +.00000172 +00000-0 +24235-4 0  9992
2 40025 097.9029 179.2810 0013640 119.6806 240.5770 14.88980386284219
CHUBUSAT 1
1 40300U 14070C   19259.79445228  .00000519  00000-0  25473-4 0  9996
2 40300  97.3218 331.6736 0020968  97.3616  17.7918 15.22167095269722
NUDT-PHONESAT
1 40900U 15049B   19259.86350874  .00001278  00000-0  57261-4 0  9992
2 40900  97.4361 268.3234 0011589 223.7630 256.2899 15.23029562221382
ZDPS 2A
1 40901U 15049C   19259.92841546 +.00000658 +00000-0 +35853-4 0  9995
2 40901 097.4608 264.4570 0011755 247.4400 182.2277 15.17828440220922
ZDPS 2B
1 40902U 15049D   19259.76883780  .00000584  00000-0  32306-4 0  9992
2 40902  97.4559 261.7241 0011980 245.9489 199.3887 15.17676457220872
XW-2A
1 40903U 15049E   19259.78810671  .00001324  00000-0  32931-4 0  9991
2 40903  97.3296 303.0329 0013583 172.4259 278.7388 15.42082204224137
KAITUO 1A
1 40904U 15049F   19259.80619419  .00000621  00000-0  36324-4 0  9991
2 40904  97.4693 260.2851 0013033 255.1386 229.1137 15.15430132220645
OBJECT G
1 40905U 15049G   19259.81804721  .00000242  00000-0  16785-4 0  9993
2 40905  97.4738 257.7550 0014224 249.5900 232.8515 15.14340177220510
XW-2C
1 40906U 15049H   19259.90948610  .00000309  00000-0  19650-4 0  9998
2 40906  97.4702 260.5082 0013221 245.0065 179.4907 15.15747965220667
XW-2D
1 40907U 15049J   19259.94116953 +.00000432 +00000-0 +25953-4 0  9990
2 40907 097.4679 260.2188 0012639 241.3146 179.7530 15.15942052220687
LILACSAT 2
1 40908U 15049K   19259.82574137  .00000116  00000-0  10022-4 0  9990
2 40908  97.4806 258.8382 0014447 250.0609 231.2175 15.13844936220442
XW-2F
1 40910U 15049M   19259.82856689  .00000577  00000-0  32180-4 0  9998
2 40910  97.4645 262.2398 0013266 233.4516 250.3677 15.17412198220682
XW-2B
1 40911U 15049N   19259.85662132  .00000429  00000-0  25869-4 0  9992
2 40911  97.4701 260.8004 0012603 241.8379 237.1925 15.15870883220561
KAITUO 1B
1 40912U 15049P   19259.90901338 +.00000598 +00000-0 +31146-4 0  9995
2 40912 097.4503 266.1015 0013733 213.1689 211.8555 15.19737935221017
TIANWANG 1C (TW-1C)
1 40926U 15051B   19259.78375260  .00009044  00000-0  12525-3 0  9992
2 40926  97.1267 305.8872 0008865  46.1304  17.3943 15.57273665224173
TIANWANG 1B (TW-1B)
1 40927U 15051C   19259.91155384  .00008796  00000-0  12960-3 0  9997
2 40927  97.1303 305.2019 0009311  57.6486  68.0360 15.55594698224038
